GW3701 Weather Reports


time (UTC)temp
F
wind
direction
speed
knots
gust
knots
rain 1hr
in
rain 24hr
in
rain mn
in
humidity
%
barometer
mb
20260506103744 48 353 3.5 3.5 0.00 0.00 0.00 84 1015.4
20260506103241 48 231 1.7 1.7 0.00 0.00 0.00 84 1015.3
20260506102738 48 51 2.6 3.5 0.00 0.00 0.00 84 1015.3
20260506102236 48 201 0.9 0.9 0.00 0.00 0.00 84 1015.0
20260506101733 48 225 1.7 1.7 0.00 0.00 0.00 84 1015.3
20260506101229 48 233 2.6 2.6 0.00 0.00 0.00 83 1015.5
20260506100727 48 230 0.0 0.9 0.00 0.00 0.00 84 1015.4
20260506100225 48 251 1.7 1.7 0.00 0.00 0.00 83 1015.2
20260506095724 48 231 0.9 1.7 0.00 0.00 0.00 83 1015.2
20260506095220 48 152 2.6 3.5 0.00 0.00 0.00 82 1015.4
20260506094717 48 148 3.5 6.1 0.00 0.00 0.00 82 1015.0
20260506094215 48 52 3.5 5.2 0.00 0.00 0.00 82 1014.7
20260506093714 48 227 0.9 1.7 0.00 0.00 0.00 82 1014.7
20260506093210 48 329 3.5 3.5 0.00 0.00 0.00 82 1014.4
20260506092708 48 237 1.7 1.7 0.00 0.00 0.00 82 1014.4
20260506092205 48 45 0.9 1.7 0.00 0.00 0.00 82 1014.2
20260506091703 48 337 2.6 2.6 0.00 0.00 0.00 81 1014.2
20260506091200 48 45 1.7 1.7 0.00 0.00 0.00 81 1014.5
20260506090658 48 230 2.6 2.6 0.00 0.00 0.00 81 1014.3
20260506090154 48 122 0.9 1.7 0.00 0.00 0.00 81 1013.9
20260506085651 48 225 1.7 2.6 0.00 0.00 0.00 80 1013.8
20260506085147 48 93 4.3 6.1 0.00 0.00 0.00 81 1014.2
20260506084644 48 342 1.7 1.7 0.00 0.00 0.00 80 1013.8
20260506084141 48 25 4.3 7.0 0.00 0.00 0.00 80 1013.9
20260506083638 48 22 3.5 5.2 0.00 0.00 0.00 80 1013.9
20260506083136 48 41 3.5 7.8 0.00 0.00 0.00 80 1013.7
20260506082632 48 81 5.2 6.1 0.00 0.00 0.00 80 1013.6
20260506082128 47 45 3.5 5.2 0.00 0.00 0.00 81 1013.3
20260506081626 47 216 2.6 3.5 0.00 0.00 0.00 81 1013.2
20260506081124 47 237 3.5 5.2 0.00 0.00 0.00 81 1013.0
20260506080621 47 40 2.6 3.5 0.00 0.00 0.00 81 1013.0
20260506080117 47 13 5.2 6.1 0.00 0.00 0.00 81 1012.9
20260506073101 48 129 1.7 2.6 0.00 0.00 0.00 81 1012.6
20260506072558 48 92 2.6 3.5 0.00 0.00 0.00 80 1012.7
20260506072056 48 31 2.6 3.5 0.00 0.00 0.00 80 1012.6
20260506071553 48 80 2.6 2.6 0.00 0.00 0.00 80 1012.5
20260506071051 48 305 3.5 5.2 0.00 0.00 0.00 79 1012.6
20260506070548 48 76 5.2 7.8 0.00 0.00 0.00 79 1012.5
20260506062022 48 238 1.7 1.7 0.00 0.00 0.00 77 1013.1
20260506061518 48 33 3.5 5.2 0.00 0.00 0.00 77 1012.8
20260506061016 48 203 1.7 1.7 0.00 0.00 0.00 77 1012.8
20260506060514 48 242 2.6 2.6 0.00 0.00 0.00 77 1012.7
20260506050943 48 16 4.3 7.0 0.00 0.00 0.00 79 1012.5
20260506050440 48 96 3.5 5.2 0.00 0.00 0.00 79 1012.4
20260506044930 48 136 4.3 6.1 0.00 0.00 0.00 80 1012.8
20260506044429 48 57 3.5 5.2 0.00 0.00 0.00 80 1012.8
20260506043925 48 111 1.7 2.6 0.00 0.00 0.00 82 1012.8
20260506043423 48 183 2.6 3.5 0.00 0.00 0.00 82 1012.7
20260506042920 48 229 1.7 2.6 0.00 0.00 0.00 82 1012.8
20260506042420 48 38 4.3 6.1 0.00 0.00 0.00 83 1012.6
20260506041918 48 145 1.7 1.7 0.00 0.00 0.00 83 1012.6
20260506041415 48 33 3.5 3.5 0.00 0.00 0.00 83 1012.6
20260506040912 48 81 4.3 6.1 0.00 0.00 0.00 83 1012.7
20260506040409 48 107 2.6 3.5 0.00 0.00 0.00 84 1012.8
20260506035905 48 30 2.6 6.1 0.00 0.00 0.00 84 1012.8
20260506035403 48 215 0.9 0.9 0.00 0.00 0.00 84 1012.7
20260506034859 48 341 2.6 5.2 0.00 0.00 0.00 85 1012.8
20260506034358 48 52 5.2 6.1 0.00 0.00 0.00 84 1012.6
20260506033854 48 66 2.6 5.2 0.00 0.00 0.00 85 1012.7
20260506033351 48 92 9.6 12.2 0.00 0.00 0.00 85 1012.2
20260506032848 48 252 4.3 7.0 0.00 0.00 0.00 85 1012.3
20260506032344 48 181 1.7 2.6 0.00 0.00 0.00 86 1012.0
20260506031841 48 199 2.6 3.5 0.00 0.00 0.00 86 1011.9
20260506031339 48 280 6.1 11.3 0.00 0.00 0.00 87 1011.6
20260506030836 48 37 5.2 7.0 0.00 0.00 0.00 87 1011.3
20260506030334 48 299 6.1 8.7 0.00 0.00 0.00 87 1011.7
20260506025831 48 77 3.5 6.1 0.00 0.00 0.00 88 1011.8
20260506025327 48 76 7.8 11.3 0.00 0.00 0.00 89 1011.8
20260506024824 48 60 3.5 5.2 0.00 0.00 0.00 90 1012.1
20260506024321 48 5 5.2 7.8 0.00 0.00 0.00 90 1011.7
20260506023817 48 52 6.1 7.0 0.00 0.00 0.00 90 1011.7
20260506023314 48 8 4.3 7.0 0.00 0.00 0.00 90 1011.8
20260506022811 48 231 1.7 1.7 0.00 0.00 0.00 89 1011.9
20260506022309 48 34 3.5 5.2 0.00 0.00 0.00 88 1011.8
20260506021807 48 72 2.6 3.5 0.00 0.00 0.00 87 1011.9
20260506021303 48 47 5.2 7.8 0.00 0.00 0.00 87 1011.6
20260506020800 48 166 3.5 6.1 0.00 0.00 0.00 87 1011.7
20260506020258 49 255 3.5 5.2 0.00 0.00 0.00 87 1011.7
20260506015755 49 120 4.3 7.0 0.00 0.00 0.00 86 1011.5
20260506015252 49 300 3.5 5.2 0.00 0.00 0.00 86 1011.4
20260506014749 49 315 3.5 5.2 0.00 0.00 0.00 86 1011.4
20260506014246 49 43 3.5 6.1 0.00 0.00 0.00 85 1011.2
20260506013743 49 135 3.5 6.1 0.00 0.00 0.00 85 1010.9
20260506013240 49 34 2.6 3.5 0.00 0.00 0.00 86 1011.0
20260506012736 49 75 0.9 1.7 0.00 0.00 0.00 85 1011.2
20260506012233 49 246 1.7 1.7 0.00 0.00 0.00 85 1010.9
20260506011731 49 59 2.6 3.5 0.00 0.00 0.00 86 1011.0
20260506011227 49 274 0.9 1.7 0.00 0.00 0.00 86 1010.8
20260506010725 49 42 2.6 3.5 0.00 0.00 0.00 86 1010.6
20260506010222 49 172 3.5 5.2 0.00 0.00 0.00 86 1010.6
20260506005720 49 92 3.5 6.1 0.00 0.00 0.00 86 1010.4
20260506005216 49 217 1.7 2.6 0.00 0.00 0.00 85 1010.4
20260506004712 49 36 3.5 6.1 0.00 0.00 0.00 85 1010.1
20260506004210 49 56 5.2 6.1 0.00 0.00 0.00 85 1009.8
20260506003705 49 334 3.5 5.2 0.00 0.00 0.00 85 1009.8
20260506003202 50 61 3.5 5.2 0.00 0.00 0.00 84 1009.9
20260506002658 50 224 3.5 7.0 0.00 0.00 0.00 84 1010.1
20260506002154 50 55 3.5 3.5 0.00 0.00 0.00 83 1009.8
20260506001650 50 56 7.8 9.6 0.00 0.00 0.00 83 1009.9
20260506001148 50 258 4.3 5.2 0.00 0.00 0.00 82 1009.8
20260506000645 50 301 3.5 5.2 0.00 0.00 0.00 82 1009.8
20260506000142 50 244 2.6 2.6 0.00 0.00 0.00 82 1009.7
20260505235640 50 71 3.5 5.2 0.00 0.00 0.00 81 1009.8
20260505235137 50 334 2.6 3.5 0.00 0.00 0.00 81 1009.5
20260505234634 51 182 0.9 2.6 0.00 0.00 0.00 81 1009.5
20260505234130 51 345 4.3 6.1 0.00 0.00 0.00 80 1009.6
20260505233628 51 16 2.6 3.5 0.00 0.00 0.00 80 1010.1
20260505233125 51 19 1.7 2.6 0.00 0.00 0.00 80 1010.1
20260505232623 51 255 3.5 6.1 0.00 0.00 0.00 79 1010.1
20260505232120 51 84 4.3 7.8 0.00 0.00 0.00 79 1010.1
20260505231617 52 295 5.2 7.0 0.00 0.00 0.00 79 1010.0
20260505231116 52 144 3.5 3.5 0.00 0.00 0.00 80 1009.8
20260505230613 52 236 3.5 5.2 0.00 0.00 0.00 80 1009.6
20260505230109 52 178 2.6 7.0 0.00 0.00 0.00 80 1009.4
20260505225606 52 228 2.6 2.6 0.00 0.00 0.00 81 1009.2
20260505225102 52 358 3.5 6.1 0.00 0.00 0.00 81 1009.7
20260505224559 52 356 7.0 9.6 0.00 0.00 0.00 80 1009.6
20260505224056 52 240 2.6 3.5 0.00 0.00 0.00 81 1009.4
20260505223554 52 357 2.6 3.5 0.00 0.00 0.00 80 1009.4
20260505223049 52 4 6.1 7.8 0.00 0.00 0.00 80 1009.3
20260505222546 52 243 2.6 2.6 0.00 0.00 0.00 80 1009.1
20260505222042 52 220 0.9 0.9 0.00 0.00 0.00 81 1009.1
20260505221539 52 6 2.6 3.5 0.00 0.00 0.00 80 1009.2
20260505221036 52 36 4.3 7.8 0.00 0.00 0.00 80 1008.8
20260505220533 52 255 3.5 5.2 0.00 0.00 0.00 80 1009.1
20260505220031 52 23 2.6 5.2 0.00 0.00 0.00 80 1008.7
20260505215529 52 66 1.7 2.6 0.00 0.00 0.00 81 1008.7
20260505215026 52 345 4.3 6.1 0.00 0.00 0.00 80 1009.0
20260505214524 52 359 7.0 9.6 0.00 0.00 0.00 80 1008.6
20260505214021 53 277 3.5 5.2 0.00 0.00 0.00 80 1008.6
20260505213519 53 317 2.6 2.6 0.00 0.00 0.00 79 1008.6
20260505213015 53 334 3.5 5.2 0.00 0.00 0.00 80 1008.7
20260505212511 53 300 2.6 2.6 0.00 0.00 0.00 80 1008.5
20260505212009 53 31 5.2 7.8 0.00 0.00 0.00 80 1008.5
20260505211506 53 350 5.2 9.6 0.00 0.00 0.00 79 1007.7
20260505211002 54 42 7.0 13.0 0.00 0.00 0.00 79 1007.5
20260505210459 54 230 0.9 0.9 0.00 0.00 0.00 79 1008.1
20260505205955 54 69 1.7 1.7 0.00 0.00 0.00 80 1007.7
20260505205454 54 359 2.6 3.5 0.00 0.00 0.00 80 1008.4
20260505204950 54 237 2.6 3.5 0.00 0.00 0.00 80 1008.4
20260505204449 53 195 2.6 3.5 0.00 0.00 0.00 80 1008.5
20260505203946 53 332 2.6 3.5 0.00 0.00 0.00 81 1008.8
20260505203442 53 257 3.5 5.2 0.00 0.00 0.00 81 1008.9
20260505202938 53 154 3.5 5.2 0.00 0.00 0.00 81 1008.2
20260505202435 53 62 3.5 5.2 0.00 0.00 0.00 81 1008.4
20260505201931 54 42 7.8 12.2 0.00 0.00 0.00 81 1008.4
20260505201428 54 173 3.5 5.2 0.00 0.00 0.00 82 1007.9
20260505200926 53 55 6.1 7.8 0.00 0.00 0.00 83 1007.7
20260505200423 54 271 3.5 5.2 0.00 0.00 0.00 83 1008.1
20260505195919 54 30 4.3 6.1 0.00 0.00 0.00 83 1008.1
20260505195416 54 274 3.5 3.5 0.00 0.00 0.00 85 1007.8
20260505194913 53 184 6.1 8.7 0.00 0.00 0.00 85 1007.7
20260505194411 54 57 4.3 7.8 0.00 0.00 0.00 85 1007.9
20260505193911 54 61 5.2 7.8 0.00 0.00 0.00 85 1007.4
20260505193409 54 315 6.1 7.8 0.00 0.00 0.00 85 1008.1
20260505192907 55 270 6.1 8.7 0.00 0.00 0.00 85 1007.9
20260505192405 55 35 6.1 7.8 0.00 0.00 0.00 85 1007.7
20260505191902 55 14 6.1 7.8 0.00 0.00 0.00 85 1007.7
20260505191400 55 216 2.6 3.5 0.00 0.00 0.00 85 1007.5
20260505190857 55 253 4.3 6.1 0.00 0.00 0.00 85 1007.5
20260505190352 56 281 4.3 5.2 0.00 0.00 0.00 84 1007.4
20260505185848 55 239 1.7 2.6 0.00 0.00 0.00 85 1007.5
20260505185345 55 253 2.6 3.5 0.00 0.00 0.00 85 1007.5
20260505184841 55 24 4.3 7.0 0.00 0.00 0.00 84 1007.4
20260505184338 56 318 5.2 8.7 0.00 0.00 0.00 84 1007.5
20260505183835 56 81 3.5 6.1 0.00 0.00 0.00 85 1007.5
20260505183332 56 268 3.5 3.5 0.00 0.00 0.00 85 1007.4
20260505182829 56 23 5.2 7.8 0.00 0.00 0.00 85 1007.2
20260505182325 56 263 4.3 7.0 0.00 0.00 0.00 85 1007.4
20260505181822 56 346 5.2 7.8 0.00 0.00 0.00 85 1007.1
20260505181319 56 35 4.3 7.0 0.00 0.00 0.00 86 1006.9
20260505180816 56 159 3.5 3.5 0.00 0.00 0.00 86 1006.7
20260505180312 56 325 5.2 7.8 0.00 0.00 0.00 86 1006.9
20260505175809 56 41 2.6 3.5 0.00 0.00 0.00 87 1007.0
20260505175306 56 44 5.2 7.8 0.00 0.00 0.00 86 1006.8
20260505174802 56 324 5.2 8.7 0.00 0.00 0.00 86 1006.7
20260505174259 56 238 1.7 2.6 0.00 0.00 0.00 86 1006.7
20260505173755 56 271 3.5 5.2 0.00 0.00 0.00 86 1006.7
20260505173252 56 45 5.2 8.7 0.00 0.00 0.00 86 1006.4
20260505172749 56 353 5.2 7.8 0.00 0.00 0.00 85 1006.4
20260505172246 56 4 4.3 6.1 0.00 0.00 0.00 86 1006.3
20260505171746 56 249 1.7 1.7 0.00 0.00 0.00 87 1006.6
20260505171243 57 256 1.7 2.6 0.00 0.00 0.00 87 1006.3
20260505170739 56 305 2.6 5.2 0.00 0.00 0.00 88 1006.0
20260505170237 56 48 9.6 12.2 0.00 0.00 0.00 87 1005.9
20260505165732 56 65 7.8 12.2 0.00 0.00 0.00 88 1006.1
20260505165228 56 54 7.0 8.7 0.00 0.00 0.00 88 1005.8
20260505164724 56 237 0.9 1.7 0.00 0.00 0.00 88 1005.7
20260505164221 57 345 6.1 13.0 0.00 0.00 0.00 88 1005.7
20260505163719 57 310 5.2 11.3 0.00 0.00 0.00 88 1005.8
20260505163217 58 6 7.0 11.3 0.00 0.00 0.00 88 1005.5
20260505162714 58 245 3.5 6.1 0.00 0.00 0.00 87 1005.1
20260505162211 59 302 2.6 6.1 0.00 0.00 0.00 87 1004.7
20260505161708 60 277 4.3 5.2 0.00 0.00 0.00 87 1004.6
20260505161206 60 331 4.3 5.2 0.00 0.00 0.00 88 1004.0
20260505160703 61 39 6.1 7.8 0.00 0.00 0.00 87 1003.9
20260505160201 61 280 3.5 5.2 0.00 0.00 0.00 88 1003.7
20260505153140 68 327 1.7 2.6 0.00 0.00 0.00 87 1003.3
20260505152637 68 229 0.9 0.9 0.00 0.00 0.00 89 1003.1
20260505152132 69 31 3.5 5.2 0.00 0.00 0.00 88 1002.9
20260505151628 69 109 3.5 3.5 0.00 0.00 0.00 88 1002.7
20260505151126 69 231 1.7 1.7 0.00 0.00 0.00 89 1002.9
20260505150621 69 243 0.9 0.9 0.00 0.00 0.00 88 1002.7
20260505150119 69 137 3.5 3.5 0.00 0.00 0.00 87 1002.6
20260505140547 69 188 1.7 2.6 0.00 0.00 0.00 88 1001.8
20260505125000 68 196 0.0 0.9 0.00 0.00 0.00 87 1001.1
20260505124457 68 195 0.9 0.9 0.00 0.00 0.00 86 1001.4
20260505123953 68 202 0.9 0.9 0.00 0.00 0.00 86 1001.3
20260505123450 68 203 0.9 0.9 0.00 0.00 0.00 85 1001.2
20260505122946 68 203 0.9 0.9 0.00 0.00 0.00 86 1001.2
20260505122443 68 204 0.0 0.0 0.00 0.00 0.00 85 1001.1
20260505121940 68 189 0.9 1.7 0.00 0.00 0.00 85 1001.0
20260505121437 68 196 0.9 0.9 0.00 0.00 0.00 84 1001.1
20260505120933 67 195 0.9 0.9 0.00 0.00 0.00 86 1001.1
20260505120430 68 217 0.9 0.9 0.00 0.00 0.00 85 1001.0
20260505115929 68 196 0.9 0.9 0.00 0.00 0.00 84 1000.6
20260505115425 68 187 1.7 1.7 0.00 0.00 0.00 84 1000.8
20260505114923 68 208 0.0 0.0 0.00 0.00 0.00 83 1000.7
20260505114419 69 201 0.9 1.7 0.00 0.00 0.00 83 1000.4
20260505113915 69 211 0.9 0.9 0.00 0.00 0.00 81 1000.2
20260505113413 70 222 0.9 0.9 0.00 0.00 0.00 80 1000.1
20260505112908 70 207 1.7 2.6 0.00 0.00 0.00 80 999.6
20260505112406 70 220 2.6 5.2 0.00 0.00 0.00 79 999.5
20260505111902 70 203 4.3 7.8 0.00 0.00 0.00 80 999.6
20260505111357 70 201 3.5 7.0 0.00 0.00 0.00 80 999.5
20260505110853 70 211 1.7 1.7 0.00 0.00 0.00 80 999.3
20260505110351 70 211 0.0 0.9 0.00 0.00 0.00 80 999.7